Flag for Switzerland Weather past 2 weeks in La-Chaux-de-Fonds, Neuchâtel, Switzerland

Now
59 °F

Scattered showers. Broken clouds.


Feels Like: 59 °F
Forecast: 49 / 59 °F
Wind: 1 mph from Southeast

Location: Les Eplatures

Current Time: Sep 30, 2014 at 5:56:38 PM

Latest Report: Sep 30, 2014 at 5:20 PM


Visibility: 5 mi

Pressure: 30.36 "Hg

Humidity: 94%

Dew point: 57 °F

Location of La-Chaux-de-FondsLocation

Historic Weather in La-Chaux-de-Fonds — Graph

°F

La-Chaux-de-Fonds temperature yesterday

Maximum temperature yesterday: 68 °F (at 12:50 PM)
Minimum temperature yesterday: 46 °F (at 2:50 AM)
Average temperature yesterday: 56 °F

Past Weeks' High & Low Weather Summary

 TemperatureHumidityPressure
High72 °F (Sep 17, 3:20 PM)100% (Sep 15, 7:20 PM)30.39 "Hg (Sep 15, 7:20 PM)
Low36 °F (Sep 26, 4:20 AM)36% (Sep 23, 3:50 PM)29.95 "Hg (Sep 17, 7:50 AM)
Average54 °F84%30.15 "Hg
* Reported Sep 15 4:20 PM — Sep 30 4:50 PM, La-Chaux-de-Fonds, Weather by CustomWeather, © 2014

Note: Actual official high and low records may vary slightly from our data, if they occured in-between our weather recording intervals... More about our weather records

Advertising

La-Chaux-de-Fonds weather history for previous 24 hours

 ConditionsComfort  
Time TempWeatherWind HumidityBarometerVisibility
4:50 PM
Sep 30
59 °FBroken clouds.2 mph94%30.36 "Hg5 mi
4:20 PM59 °FSleet. Broken clouds.2 mph94%30.36 "Hg5 mi
3:50 PM59 °FLight rain. More clouds than sun.3 mph88%30.36 "HgN/A
3:20 PM61 °FSprinkles. Partly sunny.3 mph83%30.36 "HgN/A
2:50 PM61 °FPartly sunny.3 mph77%30.36 "HgN/A
2:20 PM61 °FScattered showers. Broken clouds.6 mph77%30.36 "HgN/A
1:50 PM61 °FBroken clouds.6 mph83%30.36 "HgN/A
1:20 PM59 °FBroken clouds.3 mph88%30.36 "HgN/A
12:50 PM59 °FOvercast.5 mph88%30.39 "HgN/A
12:20 PM59 °FOvercast.5 mph82%30.39 "HgN/A
11:50 AM59 °FPartly sunny.5 mph82%30.36 "HgN/A
11:20 AM59 °FScattered clouds.6 mph82%30.36 "HgN/A
10:50 AM59 °FPartly sunny.3 mph82%30.36 "HgN/A
10:20 AM57 °FBroken clouds.3 mph88%30.36 "HgN/A
9:50 AM57 °FPartly sunny.2 mph88%30.36 "HgN/A
9:20 AM57 °FPassing clouds.1 mph88%30.36 "HgN/A
8:50 AM57 °FOvercast.1 mph88%30.36 "HgN/A
8:20 AM55 °FOvercast.1 mph88%30.36 "HgN/A
7:50 AM55 °FPassing clouds.1 mph88%30.36 "HgN/A
7:20 AM55 °FPartly cloudy.No wind88%30.36 "HgN/A
6:50 AM55 °FPassing clouds.1 mph88%30.36 "HgN/A
6:20 AM55 °FPartly cloudy.No wind88%30.36 "HgN/A
5:50 AM55 °FOvercast.No wind88%30.36 "HgN/A
5:20 AM55 °FClear.No wind88%30.36 "Hg10 mi
4:50 AM55 °FClear.1 mph88%30.36 "Hg10 mi
4:20 AM54 °FClear.2 mph94%30.36 "Hg10 mi
3:50 AM55 °FClear.1 mph88%30.36 "Hg10 mi
3:20 AM55 °FClear.1 mph94%30.36 "HgN/A
2:50 AM55 °FOvercast.1 mph94%30.36 "HgN/A
2:20 AM55 °FClear.1 mph94%30.36 "HgN/A
1:50 AM54 °FPartly cloudy.2 mph94%30.36 "HgN/A
1:20 AM55 °FOvercast.1 mph88%30.36 "HgN/A
12:50 AM55 °FClear.1 mph88%30.36 "Hg10 mi
12:20 AM55 °FLight rain. Passing clouds.1 mph88%30.36 "HgN/A
11:50 PM
Sep 29
55 °FClear.No wind88%30.36 "Hg10 mi
11:20 PM55 °FClear.No wind94%30.36 "Hg10 mi
10:50 PM57 °FClear.No wind88%30.36 "Hg10 mi
10:20 PM57 °FClear.1 mph94%30.36 "Hg10 mi
9:50 PM57 °FClear.No wind94%30.36 "Hg10 mi
9:20 PM57 °FClear.1 mph94%30.36 "Hg10 mi
8:50 PM57 °FSunny.2 mph94%30.36 "Hg10 mi
8:20 PM59 °FSunny.1 mph88%30.36 "Hg10 mi
7:50 PM59 °FSunny.1 mph88%30.33 "Hg10 mi
7:20 PM61 °FSunny.1 mph83%30.36 "Hg10 mi
6:50 PM61 °FBroken clouds.1 mph88%30.36 "HgN/A
6:20 PM61 °FBroken clouds.2 mph88%30.36 "HgN/A
5:50 PM63 °FBroken clouds.1 mph77%30.36 "HgN/A
5:20 PM63 °FMostly cloudy.2 mph77%30.36 "HgN/A
Weather by CustomWeather, © 2014

See weather overviewHow to use our weather pages